�������l�o���
Date,Time,MP-1(��Sv/h),MP-2(��Sv/h),MP-3(��Sv/h),MP-4(��Sv/h),MP-5(��Sv/h),MP-6(��Sv/h),MP-7(��Sv/h),MP-8(��Sv/h),����,����(m/s),���J
2017/01/31,00:00,1.069,1.806,1.171,2.039,1.419,0.563,1.025,0.951,�k��,5.7,�L
2017/01/31,00:10,1.068,1.803,1.171,2.036,1.414,0.560,1.023,0.949,�k��,4.8,�L
2017/01/31,00:20,1.067,1.801,1.171,2.039,1.416,0.562,1.023,0.952,�k��,5.3,��
2017/01/31,00:30,1.066,1.802,1.171,2.036,1.414,0.559,1.023,0.949,�k��,4.7,��
2017/01/31,00:40,1.067,1.803,1.167,2.037,1.414,0.559,1.024,0.952,�k��,4.6,��
2017/01/31,00:50,1.066,1.803,1.169,2.036,1.413,0.561,1.025,0.949,�k��,4.6,��
2017/01/31,01:00,1.065,1.803,1.169,2.035,1.416,0.560,1.024,0.950,�k��,5.5,��
2017/01/31,01:10,1.066,1.798,1.168,2.038,1.414,0.559,1.021,0.949,�k��,5.4,��
2017/01/31,01:20,1.064,1.803,1.166,2.038,1.413,0.558,1.022,0.948,�k�k��,5.0,��
2017/01/31,01:30,1.063,1.802,1.167,2.035,1.412,0.558,1.023,0.951,�k�k��,5.9,��
2017/01/31,01:40,1.065,1.798,1.168,2.037,1.412,0.557,1.023,0.950,�k�k��,6.3,��
2017/01/31,01:50,1.065,1.799,1.167,2.032,1.412,0.556,1.022,0.951,�k�k��,7.3,��
2017/01/31,02:00,1.062,1.799,1.166,2.035,1.414,0.558,1.021,0.949,�k�k��,8.3,��
2017/01/31,02:10,1.063,1.799,1.166,2.035,1.412,0.556,1.022,0.949,�k��,7.6,��
2017/01/31,02:20,1.064,1.803,1.168,2.035,1.409,0.557,1.021,0.950,�k��,9.4,��
2017/01/31,02:30,1.063,1.799,1.169,2.031,1.411,0.556,1.023,0.949,�k��,9.4,��
2017/01/31,02:40,1.064,1.800,1.167,2.037,1.412,0.557,1.023,0.950,�k��,8.6,��
2017/01/31,02:50,1.064,1.800,1.165,2.035,1.409,0.555,1.022,0.949,�k��,10.2,��
2017/01/31,03:00,1.062,1.801,1.166,2.036,1.410,0.554,1.021,0.950,�k��,7.1,��
2017/01/31,03:10,1.063,1.802,1.165,2.036,1.409,0.556,1.022,0.951,�k��,7.6,��
2017/01/31,03:20,1.063,1.801,1.166,2.033,1.410,0.556,1.022,0.948,�k�k��,9.2,��
2017/01/31,03:30,1.061,1.800,1.165,2.031,1.411,0.555,1.023,0.950,�k��,8.1,��
2017/01/31,03:40,1.062,1.799,1.165,2.035,1.409,0.554,1.024,0.950,�k��,6.7,��
2017/01/31,03:50,1.063,1.803,1.162,2.034,1.413,0.554,1.022,0.949,�k��,9.0,��
2017/01/31,04:00,1.063,1.801,1.166,2.035,1.410,0.555,1.024,0.948,�k��,9.6,��
2017/01/31,04:10,1.060,1.801,1.162,2.037,1.409,0.554,1.021,0.950,�k��,8.7,��
2017/01/31,04:20,1.062,1.804,1.165,2.033,1.411,0.554,1.023,0.949,�k��,7.6,��
2017/01/31,04:30,1.062,1.801,1.164,2.032,1.412,0.555,1.021,0.948,�k��,9.2,��
2017/01/31,04:40,1.059,1.799,1.162,2.036,1.409,0.556,1.021,0.950,�k��,7.7,��
2017/01/31,04:50,1.061,1.801,1.166,2.037,1.409,0.555,1.022,0.950,�k��,7.0,��
2017/01/31,05:00,1.061,1.802,1.163,2.035,1.410,0.552,1.020,0.950,�k�k��,7.2,��
2017/01/31,05:10,1.062,1.801,1.166,2.035,1.411,0.554,1.022,0.950,�k�k��,7.5,��
2017/01/31,05:20,1.061,1.799,1.164,2.034,1.408,0.554,1.021,0.948,�k�k��,7.1,��
2017/01/31,05:30,1.061,1.798,1.165,2.035,1.409,0.554,1.021,0.949,�k�k��,7.9,��
2017/01/31,05:40,1.060,1.801,1.164,2.035,1.408,0.557,1.021,0.948,�k�k��,7.8,��
2017/01/31,05:50,1.064,1.801,1.167,2.036,1.409,0.557,1.022,0.949,�k�k��,7.8,��
2017/01/31,06:00,1.060,1.803,1.166,2.035,1.409,0.555,1.021,0.948,�k�k��,6.4,��
2017/01/31,06:10,1.062,1.802,1.165,2.037,1.410,0.556,1.022,0.948,�k�k��,7.3,��
2017/01/31,06:20,1.060,1.800,1.166,2.036,1.409,0.555,1.021,0.948,�k�k��,7.4,��
2017/01/31,06:30,1.060,1.797,1.166,2.034,1.408,0.555,1.022,0.948,�k�k��,7.9,��
2017/01/31,06:40,1.062,1.801,1.165,2.036,1.408,0.557,1.021,0.948,�k�k��,7.4,��
2017/01/31,06:50,1.059,1.799,1.163,2.034,1.407,0.555,1.022,0.947,�k�k��,7.6,��
2017/01/31,07:00,1.061,1.798,1.163,2.036,1.407,0.556,1.023,0.949,�k�k��,9.3,��
2017/01/31,07:10,1.060,1.801,1.159,2.035,1.411,0.556,1.021,0.948,�k�k��,8.5,��
2017/01/31,07:20,1.062,1.802,1.161,2.032,1.405,0.555,1.020,0.948,�k�k��,6.6,��
2017/01/31,07:30,1.059,1.802,1.169,2.037,1.407,0.555,1.021,0.948,�k�k��,4.1,��
2017/01/31,07:40,1.059,1.800,1.166,2.037,1.412,0.554,1.019,0.950,�k�k��,4.5,��
2017/01/31,07:50,1.062,1.804,1.164,2.031,1.408,0.554,1.020,0.948,�k,4.8,��
2017/01/31,08:00,1.062,1.801,1.164,2.037,1.410,0.557,1.018,0.949,�k�k��,4.6,��
2017/01/31,08:10,1.063,1.801,1.163,2.034,1.410,0.556,1.021,0.949,�k,4.9,��
2017/01/31,08:20,1.062,1.803,1.166,2.033,1.408,0.555,1.020,0.949,�k�k��,5.0,��
2017/01/31,08:30,1.062,1.802,1.166,2.039,1.408,0.555,1.022,0.950,�k�k��,5.1,��
2017/01/31,08:40,1.060,1.802,1.165,2.034,1.410,0.558,1.021,0.949,�k�k��,6.8,��
2017/01/31,08:50,1.064,1.806,1.167,2.037,1.411,0.558,1.022,0.951,�k�k��,5.2,��
2017/01/31,09:00,1.066,1.803,1.166,2.037,1.411,0.557,1.022,0.950,�k�k��,5.5,��
2017/01/31,09:10,1.065,1.803,1.168,2.039,1.412,0.556,1.022,0.950,�k�k��,6.4,��
2017/01/31,09:20,1.064,1.803,1.170,2.037,1.412,0.556,1.022,0.949,�k�k��,5.9,��
2017/01/31,09:30,1.066,1.806,1.170,2.037,1.412,0.557,1.023,0.950,�k��,6.8,��
2017/01/31,09:40,1.066,1.805,1.169,2.038,1.414,0.556,1.022,0.951,�k��,7.6,��
2017/01/31,09:50,1.067,1.805,1.170,2.040,1.412,0.557,1.020,0.949,�k��,8.7,��
2017/01/31,10:00,1.068,1.804,1.173,2.036,1.412,0.559,1.019,0.949,�k��,8.3,��
2017/01/31,10:10,1.066,1.805,1.173,2.040,1.413,0.558,1.020,0.949,�k��,8.1,��
2017/01/31,10:20,1.069,1.807,1.175,2.041,1.413,0.558,1.020,0.950,�k��,8.9,��
2017/01/31,10:30,1.069,1.801,1.175,2.042,1.412,0.557,1.022,0.950,�k��,7.7,��
2017/01/31,10:40,1.070,1.805,1.175,2.038,1.417,0.557,1.023,0.950,�k��,8.8,��
2017/01/31,10:50,1.069,1.804,1.176,-,1.417,0.557,1.024,0.951,�k�k��,6.7,��
2017/01/31,11:00,1.068,1.807,1.178,-,1.417,0.558,1.023,0.952,�k��,7.5,��
2017/01/31,11:10,1.068,1.804,1.172,-,1.417,0.558,1.021,0.951,�k��,7.9,��
2017/01/31,11:20,1.069,1.801,1.173,-,1.416,0.558,1.022,0.951,�k�k��,7.1,��
2017/01/31,11:30,1.070,1.806,1.173,-,1.421,0.559,1.024,0.951,�k��,7.0,��
2017/01/31,11:40,1.069,1.805,1.171,-,1.419,0.559,1.023,0.951,�k��,5.3,��
2017/01/31,11:50,1.070,1.806,1.168,-,1.421,0.561,1.024,0.951,�k��,4.4,��
2017/01/31,12:00,1.070,1.807,1.170,-,1.419,0.560,1.022,0.951,�k�k��,4.2,��
2017/01/31,12:10,1.074,1.807,1.170,-,1.422,0.560,1.024,0.950,��,2.0,��
2017/01/31,12:20,1.071,1.801,1.170,-,1.421,0.560,1.023,0.952,�쐼,1.2,��
2017/01/31,12:30,1.073,1.802,1.176,-,1.421,0.560,1.022,0.952,�k��,2.5,��
2017/01/31,12:40,1.071,1.803,1.176,-,1.423,0.560,1.022,0.954,��,3.5,��
2017/01/31,12:50,1.071,1.801,1.176,-,1.420,0.561,1.022,0.951,���쐼,2.8,��
2017/01/31,13:00,1.073,1.805,1.175,-,1.423,0.560,1.021,0.952,���k��,1.4,��
2017/01/31,13:10,1.074,1.804,1.176,-,1.422,0.560,1.023,0.954,���쐼,5.9,��
2017/01/31,13:20,1.071,1.806,1.173,-,1.421,0.561,1.023,0.952,��,4.4,��
2017/01/31,13:30,1.071,1.805,1.175,-,1.421,0.559,1.023,0.953,���k��,5.1,��
2017/01/31,13:40,1.075,1.808,1.175,-,1.422,0.562,1.022,0.952,��,7.2,��
2017/01/31,13:50,1.073,1.807,1.178,-,1.423,0.561,1.021,0.954,��,7.9,��
2017/01/31,14:00,1.073,1.811,1.176,-,1.421,0.560,1.021,0.950,��,7.9,��
2017/01/31,14:10,1.074,1.813,1.175,-,1.419,0.560,1.022,0.950,��,6.9,��
2017/01/31,14:20,1.073,1.812,1.173,-,1.422,0.561,1.023,0.950,��,6.0,��
2017/01/31,14:30,1.076,1.807,1.173,-,1.421,0.560,1.025,0.950,��,6.5,��
2017/01/31,14:40,1.075,1.809,1.174,-,1.422,0.560,1.026,0.949,��,6.8,��
2017/01/31,14:50,1.075,1.806,1.174,-,1.424,0.559,1.027,0.950,��,5.1,��
2017/01/31,15:00,1.074,1.809,1.172,-,1.424,0.560,1.023,0.949,��,6.3,��
2017/01/31,15:10,1.075,1.809,1.175,-,1.423,0.561,1.023,0.951,��,7.1,��
2017/01/31,15:20,1.074,1.812,1.178,-,1.423,0.560,1.024,0.952,��,8.5,��
2017/01/31,15:30,1.076,1.813,1.177,-,1.421,0.563,1.025,0.953,��,7.2,��
2017/01/31,15:40,1.074,1.811,1.177,-,1.421,0.560,1.025,0.951,��,7.1,��
2017/01/31,15:50,1.075,1.814,1.177,-,1.424,0.562,1.025,0.953,��,8.1,��
2017/01/31,16:00,1.074,1.814,1.178,-,1.423,0.561,1.023,0.951,���쐼,6.5,��
2017/01/31,16:10,1.074,1.812,1.177,-,1.424,0.559,1.024,0.951,�쐼,6.9,��
2017/01/31,16:20,1.073,1.810,1.175,-,1.424,0.560,1.024,0.949,���쐼,6.8,��
2017/01/31,16:30,1.072,1.809,1.177,-,1.424,0.560,1.024,0.953,��,7.4,��
2017/01/31,16:40,1.072,1.810,1.175,2.044,1.424,0.560,1.025,0.952,���쐼,5.9,��
2017/01/31,16:50,1.071,1.809,1.175,2.045,1.423,0.560,1.024,0.951,���쐼,6.8,��
2017/01/31,17:00,1.070,1.812,1.176,2.046,1.426,0.563,1.025,0.951,��,7.2,��
2017/01/31,17:10,1.072,1.809,1.172,2.044,1.423,0.561,1.023,0.950,��,6.9,��
2017/01/31,17:20,1.069,1.813,1.173,2.044,1.423,0.560,1.026,0.950,��,8.2,��
2017/01/31,17:30,1.073,1.810,1.173,2.048,1.425,0.561,1.022,0.952,��,9.0,��
2017/01/31,17:40,1.070,1.811,1.174,2.045,1.422,0.560,1.023,0.952,��,9.5,��
2017/01/31,17:50,1.068,1.811,1.175,2.044,1.423,0.560,1.023,0.951,��,7.7,��
2017/01/31,18:00,1.069,1.811,1.173,2.044,1.423,0.559,1.024,0.950,��,6.5,��
2017/01/31,18:10,1.068,1.808,1.171,2.044,1.422,0.559,1.023,0.950,��,6.7,��
2017/01/31,18:20,1.067,1.810,1.172,2.043,1.423,0.560,1.024,0.952,��,6.4,��
2017/01/31,18:30,1.071,1.813,1.171,2.045,1.423,0.560,1.021,0.951,��,6.6,��
2017/01/31,18:40,1.070,1.807,1.171,2.042,1.423,0.558,1.025,0.950,��,7.6,��
2017/01/31,18:50,1.070,1.811,1.173,2.042,1.424,0.558,1.024,0.949,��,7.5,��
2017/01/31,19:00,1.070,1.810,1.171,2.047,1.424,0.560,1.022,0.950,��,7.5,��
2017/01/31,19:10,1.068,1.809,1.172,2.043,1.423,0.559,1.022,0.950,��,7.2,��
2017/01/31,19:20,1.067,1.809,1.172,2.044,1.423,0.558,1.023,0.951,��,7.5,��
2017/01/31,19:30,1.069,1.812,1.172,2.047,1.424,0.558,1.023,0.951,��,6.1,��
2017/01/31,19:40,1.067,1.811,1.171,2.041,1.424,0.559,1.023,0.950,��,7.3,��
2017/01/31,19:50,1.070,1.810,1.173,2.045,1.423,0.558,1.024,0.950,���k��,7.9,��
2017/01/31,20:00,1.066,1.809,1.173,2.046,1.424,0.558,1.024,0.951,��,7.1,��
2017/01/31,20:10,1.069,1.809,1.173,2.046,1.423,0.557,1.024,0.950,���k��,10.7,��
2017/01/31,20:20,1.069,1.811,1.174,2.045,1.422,0.560,1.023,0.949,���k��,8.9,��
2017/01/31,20:30,1.069,1.810,1.172,2.046,1.424,0.558,1.023,0.950,��,7.3,��
2017/01/31,20:40,1.069,1.806,1.173,2.044,1.423,0.558,1.024,0.951,���k��,8.9,��
2017/01/31,20:50,1.067,1.811,1.173,2.044,1.424,0.556,1.023,0.950,��,7.2,��
2017/01/31,21:00,1.069,1.812,1.173,2.044,1.421,0.557,1.024,0.951,��,7.6,��
2017/01/31,21:10,1.067,1.811,1.172,2.044,1.422,0.558,1.022,0.953,��,7.0,��
2017/01/31,21:20,1.064,1.811,1.174,2.047,1.419,0.557,1.024,0.948,��,6.8,��
2017/01/31,21:30,1.067,1.810,1.173,2.041,1.423,0.558,1.022,0.949,��,7.1,��
2017/01/31,21:40,1.070,1.811,1.172,2.045,1.423,0.557,1.023,0.951,��,6.1,��
2017/01/31,21:50,1.069,1.811,1.173,2.047,1.421,0.559,1.023,0.951,��,5.7,��
2017/01/31,22:00,1.069,1.810,1.173,2.046,1.422,0.558,1.025,0.950,��,5.3,��
2017/01/31,22:10,1.068,1.809,1.174,2.044,1.423,0.557,1.023,0.951,���k��,5.8,��
2017/01/31,22:20,1.068,1.811,1.173,2.046,1.420,0.559,1.022,0.952,���k��,4.6,��
2017/01/31,22:30,1.067,1.807,1.174,2.042,1.421,0.558,1.024,0.950,�k��,4.8,��
2017/01/31,22:40,1.068,1.810,1.171,2.044,1.422,0.558,1.022,0.951,�k��,5.3,��
2017/01/31,22:50,1.070,1.807,1.171,2.043,1.423,0.558,1.021,0.951,�k��,5.7,��
2017/01/31,23:00,1.068,1.808,1.172,2.047,1.422,0.558,1.022,0.952,���k��,5.5,��
2017/01/31,23:10,1.069,1.810,1.174,2.045,1.422,0.559,1.023,0.950,���k��,4.3,��
2017/01/31,23:20,1.069,1.808,1.173,2.046,1.418,0.557,1.023,0.950,���k��,4.8,��
2017/01/31,23:30,1.066,1.809,1.173,2.044,1.418,0.559,1.022,0.950,���k��,6.2,��
2017/01/31,23:40,1.067,1.809,1.171,2.043,1.421,0.558,1.023,0.949,���k��,6.6,��
2017/01/31,23:50,1.067,1.808,1.171,2.045,1.420,0.559,1.023,0.949,���k��,7.4,��
